Arviat Airport,

6:06 PM CDT on September 16, 2019 (GMT -0500)
Arviat Airport

Weather History for CYEK - August, 2019

Change the Weather History Date:

Friday, August 23, 2019

  Actual Average Record
Temperature  
Mean Temperature 53 °F -  
Max Temperature 61 °F 52 °F 63 °F (2017)
Min Temperature 45 °F 43 °F 37 °F (2001)
Degree Days  
Heating Degree Days 12    
Growing Degree Days 3 (Base 50)    
Moisture  
Dew Point 49 °F    
Average Humidity 84    
Maximum Humidity 100    
Minimum Humidity 48    
Precipitation  
Precipitation 0.00 in - - ()
Sea Level Pressure  
Sea Level Pressure 29.87 in    
Wind  
Wind Speed 14 mph ()    
Max Wind Speed 24 mph    
Max Gust Speed 29 mph    
Visibility 10.2 miles    
Events Rain    
Averages and records for this station are not official NWS values.
T = Trace of Precipitation, MM = Missing Value Source: Averaged Metar Reports

Daily Weather History Graph

Daily Weather History Graph

Search for Another Location

Airport or City:

Astronomy

Aug. 23, 2019 Rise Set
Actual Time 5:45 AM CDT 8:50 PM CDT
Civil Twilight 4:54 AM CDT 9:40 PM CDT
Nautical Twilight 3:43 AM CDT 10:50 PM CDT
Astronomical Twilight 1:51 AM CDT 12:46 AM CDT
Moon 11:05 PM CDT (8/23) 3:32 PM CDT (8/23)
Length of Visible Light 16h 45m
Length of Day
15h 05m
Waning Gibbous, 49% of the Moon is Illuminated
Aug 23
Waning Gibbous
Aug 30
New
Sep 5
First Quarter
Sep 13
Full
Sep 21
Last Quarter

Hourly Weather History & Observations

Time (CDT) Temp. Dew Point Humidity Pressure Visibility Wind Dir Wind Speed Gust Speed Precip Events Conditions
12:00 AM 48.2 °F 46.4 °F 93% 29.86 in 9.0 mi South 24.2 mph - N/A   Clear
2:00 AM 48.2 °F 46.4 °F 93% 29.82 in 9.0 mi South 23.0 mph 28.8 mph N/A   Clear
3:00 AM 48.2 °F 46.4 °F 93% 29.80 in 9.0 mi South 21.9 mph 28.8 mph N/A   Clear
4:00 AM 49 °F 46 °F 87% 29.79 in 10 mi South 20.7 mph - -  
4:00 AM 48.2 °F 46.4 °F 93% 29.79 in 9.0 mi South 20.7 mph 26.5 mph N/A   Clear
5:00 AM 48.2 °F 46.4 °F 93% 29.77 in 9.0 mi South 19.6 mph - N/A   Clear
7:00 AM 50 °F 48 °F 90% 29.76 in 10 mi SSW 17.3 mph - -  
7:00 AM 50.0 °F 48.2 °F 94% 29.76 in 15.0 mi SSW 16.1 mph - N/A   Scattered Clouds
8:00 AM 50.0 °F 48.2 °F 94% 29.78 in 15.0 mi SW 12.7 mph - N/A   Overcast
8:33 AM 51.8 °F 50.0 °F 94% 29.78 in 15.0 mi SW 11.5 mph - N/A Rain Light Rain
9:00 AM 51.8 °F 50.0 °F 94% 29.79 in 3.0 mi SW 6.9 mph - N/A Rain Light Rain
9:03 AM 51.8 °F 50.0 °F 94% 29.79 in 2.0 mi SW 6.9 mph - N/A Rain Light Rain
10:00 AM 52 °F 52 °F 100% 29.80 in 7 mi SSW 6.9 mph - - Rain Light Rain
10:00 AM 51.8 °F 51.8 °F 100% 29.80 in 6.0 mi SSW 8.1 mph - N/A Rain Light Rain
11:00 AM 55.4 °F 55.4 °F 100% 29.81 in 7.0 mi West 10.4 mph - N/A Rain Light Rain
12:00 PM 55.4 °F 53.6 °F 94% 29.84 in 15.0 mi NNW 15.0 mph 21.9 mph N/A Rain Light Rain
12:18 PM 55.4 °F 53.6 °F 94% 29.85 in 15.0 mi NNW 12.7 mph - N/A   Overcast
1:00 PM 57.2 °F 53.6 °F 88% 29.86 in 15.0 mi NNW 13.8 mph - N/A   Overcast
4:00 PM 62 °F 49 °F 53% 29.93 in 10 mi NW 13.8 mph - -  
4:00 PM 60.8 °F 48.2 °F 63% 29.93 in 15.0 mi NW 12.7 mph 19.6 mph N/A   Partly Cloudy
5:00 PM 62.6 °F 46.4 °F 55% 29.95 in 15.0 mi NNW 12.7 mph 19.6 mph N/A   Partly Cloudy
6:00 PM 60.8 °F 44.6 °F 55% 29.97 in 9.0 mi NW 12.7 mph - N/A   Clear
7:00 PM 61 °F 46 °F 48% 30.00 in 10 mi NW 8.1 mph - -  
7:00 PM 60.8 °F 46.4 °F 59% 30.00 in 9.0 mi NW 8.1 mph - N/A   Clear
8:00 PM 57.2 °F 48.2 °F 72% 30.00 in 9.0 mi NNW 5.8 mph - N/A   Clear
9:00 PM 57.2 °F 48.2 °F 72% 30.01 in 9.0 mi Calm Calm - N/A   Clear
10:00 PM 53 °F 49 °F 84% 30.01 in 10 mi South 3.5 mph - -  
10:00 PM 51.8 °F 50.0 °F 94% 30.01 in 9.0 mi SSW 3.5 mph - N/A   Partly Cloudy